Tracking 31027 objects as of 19-Jul-2025
HD Live streaming from Space Station
objects crossing your sky now

SATCOM 3 DEB

Track SATCOM 3 DEB now!


NORAD ID: 29003
Int'l Code: 1979-101F
Perigee: 8,096.5 km
Apogee: 35,570.1 km
Inclination: 8.5 °
Period: 785.7 minutes
Semi major axis: 28204 km
RCS: 0.1589 m2 (medium)
Launch date: December 7, 1979
Source: United States (US)
Launch site: AIR FORCE EASTERN TEST RANGE (AFETR)

Note: This is SATELLITE DEBRIS
Your satellite tracking list
MOLNIYA 1-86
Track 1 satellite(s)




NASA's NSSDC Master Catalog

Two Line Element Set (TLE):
1 29003U 79101F   25198.36874593 -.00000038  00000-0  00000-0 0  9994
2 29003   8.4699  74.4029 4870471 126.7444  76.9933  1.83286748 80469
Source of the keplerian elements: AFSPC